Location: Newark
(35.4036°N, 80.4356°W)
Time: 14:31:32
(UTC+00:00)

LilacSat-2 - Visible Passes

Search period start: 17 September 2019 00:00
Search period end: 27 September 2019 00:00
Orbit: 514 x 534 km, 97.5° (Epoch: 17 September)

Date Brightness Start Highest point End Pass type
(mag) Time Alt. Az. Time Alt. Az. Time Alt. Az.
17 Sep ? 10:10:31 10° ENE 10:12:17 13° E 10:14:01 10° ESE visible
23 Sep ? 10:30:40 10° NE 10:33:47 23° E 10:36:52 10° SSE visible
24 Sep ? 10:19:05 10° NE 10:21:34 17° E 10:24:03 10° SE visible
25 Sep ? 10:08:00 10° ENE 10:09:21 12° E 10:10:41 10° ESE visible
26 Sep ? 23:43:02 10° WSW 23:44:02 11° W 23:45:00 10° WNW visible
